Destin, FL

9:52 AM CDT on July 20, 2017 (GMT -0500)
Destin-Fort Walton Beach

Weather History for KDTS - September, 2013

Change the Weather History Date:

Monday, September 16, 2013

  Actual Average Record
Temperature  
Mean Temperature 84 °F -  
Max Temperature 90 °F 84 °F 91 °F (1997)
Min Temperature 78 °F 70 °F 66 °F (1999)
Cooling Degree Days 18    
Growing Degree Days 34 (Base 50)    
Moisture  
Dew Point 74 °F    
Average Humidity 75    
Maximum Humidity 90    
Minimum Humidity 59    
Precipitation  
Precipitation 0.00 in - - ()
Sea Level Pressure  
Sea Level Pressure 30.04 in    
Wind  
Wind Speed 3 mph (ENE)    
Max Wind Speed 12 mph    
Max Gust Speed -    
Visibility 10 miles    
Events Thunderstorm    
Averages and records for this station are not official NWS values.
T = Trace of Precipitation, MM = Missing Value Source: NWS Daily Summary

Daily Weather History Graph

Daily Weather History Graph

Search for Another Location

Airport or City:

Trip Planner

Search our weather history database for the weather conditions in past years. The results will help you decide how hot, cold, wet, or windy it might be!

Date:

Astronomy

Sep. 16, 2013 Rise Set
Actual Time 6:31 AM CDT 6:49 PM CDT
Civil Twilight 6:06 AM CDT 7:13 PM CDT
Nautical Twilight 5:38 AM CDT 7:41 PM CDT
Astronomical Twilight 5:10 AM CDT 8:10 PM CDT
Moon 4:50 PM CDT (9/16) 3:27 AM CDT (9/16)
Length of Visible Light 13h 06m
Length of Day
12h 18m
Waxing Gibbous, 90% of the Moon is Illuminated
Sep 16
Waxing Gibbous
Sep 19
Full
Sep 26
Last Quarter
Oct 4
New
Oct 11
First Quarter

Hourly Weather History & Observations

Time (CDT) Temp. Heat Index Dew Point Humidity Pressure Visibility Wind Dir Wind Speed Gust Speed Precip Events Conditions
12:53 AM 81.0 °F 87.3 °F 75.9 °F 85% 30.06 in 10.0 mi Calm Calm - N/A   Mostly Cloudy
1:29 AM 78.8 °F - 75.2 °F 89% 30.05 in 8.0 mi Calm Calm - N/A   Scattered Clouds
1:53 AM 79.0 °F - 75.9 °F 90% 30.04 in 8.0 mi Calm Calm - N/A   Clear
2:42 AM 78.8 °F - 75.2 °F 89% 30.04 in 7.0 mi Calm Calm - N/A   Mostly Cloudy
2:53 AM 81.0 °F 87.9 °F 77.0 °F 88% 30.04 in 9.0 mi Variable 6.9 mph - N/A   Mostly Cloudy
3:20 AM 80.6 °F 86.2 °F 75.2 °F 84% 30.03 in 10.0 mi NNE 3.5 mph - N/A   Scattered Clouds
3:53 AM 80.1 °F 85.4 °F 75.9 °F 87% 30.03 in 10.0 mi East 5.8 mph - N/A   Clear
4:53 AM 79.0 °F - 75.0 °F 88% 30.04 in 10.0 mi NE 4.6 mph - N/A   Clear
5:53 AM 78.1 °F - 73.0 °F 84% 30.04 in 10.0 mi NNE 4.6 mph - N/A   Clear
6:53 AM 78.1 °F - 73.0 °F 84% 30.06 in 10.0 mi NE 4.6 mph - N/A   Clear
7:53 AM 81.0 °F 86.7 °F 75.0 °F 82% 30.05 in 10.0 mi East 6.9 mph - N/A   Clear
8:53 AM 84.0 °F 92.6 °F 75.9 °F 76% 30.07 in 10.0 mi ENE 6.9 mph - N/A   Clear
9:53 AM 86.0 °F 95.1 °F 75.0 °F 70% 30.09 in 10.0 mi ENE 5.8 mph - N/A   Clear
10:53 AM 87.1 °F 98.8 °F 77.0 °F 72% 30.09 in 10.0 mi SE 11.5 mph - N/A   Partly Cloudy
11:53 AM 88.0 °F 96.5 °F 73.9 °F 63% 30.07 in 10.0 mi SE 10.4 mph - N/A   Clear
12:53 PM 88.0 °F 95.6 °F 73.0 °F 61% 30.06 in 10.0 mi South 6.9 mph - N/A   Clear
1:53 PM 88.0 °F 96.5 °F 73.9 °F 63% 30.04 in 10.0 mi South 6.9 mph - N/A   Clear
2:53 PM 88.0 °F 94.7 °F 72.0 °F 59% 30.02 in 10.0 mi WSW 4.6 mph - N/A   Clear
3:53 PM 88.0 °F 95.6 °F 73.0 °F 61% 30.01 in 10.0 mi SSW 5.8 mph - N/A   Clear
4:53 PM 89.1 °F 97.0 °F 73.0 °F 59% 30.01 in 10.0 mi WSW 5.8 mph - N/A   Partly Cloudy
5:49 PM 87.8 °F 95.6 °F 73.4 °F 62% 30.01 in 10.0 mi South 3.5 mph - N/A Thunderstorm Partly Cloudy
5:53 PM 86.0 °F 93.0 °F 73.0 °F 65% 30.01 in 10.0 mi Calm Calm - N/A Thunderstorm Clear
6:04 PM 87.8 °F 95.6 °F 73.4 °F 62% 30.01 in 10.0 mi Calm Calm - N/A   Scattered Clouds
6:53 PM 82.9 °F 90.2 °F 75.0 °F 77% 30.02 in 10.0 mi Calm Calm - N/A   Partly Cloudy
7:53 PM 82.9 °F 90.2 °F 75.0 °F 77% 30.05 in 10.0 mi NE 3.5 mph - N/A   Scattered Clouds
8:53 PM 81.0 °F 85.8 °F 73.0 °F 77% 30.05 in 10.0 mi North 4.6 mph - N/A   Mostly Cloudy
9:53 PM 81.0 °F 85.8 °F 73.0 °F 77% 30.04 in 10.0 mi Calm Calm - N/A   Overcast
10:53 PM 81.0 °F 85.2 °F 72.0 °F 74% 30.05 in 10.0 mi North 4.6 mph - N/A   Partly Cloudy
11:53 PM 78.1 °F - 73.0 °F 84% 30.04 in 10.0 mi North 3.5 mph - N/A   Clear